Time,TemperatureF,DewpointF,PressureIn,WindDirection,WindDirectionDegrees,WindSpeedMPH,WindSpeedGustMPH,Humidity,HourlyPrecipIn,Conditions,Clouds,dailyrainin,SoftwareType,DateUTC
2014-01-21 00:00:00,25.7,14.1,29.88,NNW,337,0.0,1.0,61,0.00,,BKN075,0.00,VWS V14.01,2014-01-21 05:00:00,
2014-01-21 00:01:00,25.6,14.0,29.89,NW,309,1.0,6.0,61,0.00,,FEW075,0.00,VWS V14.01,2014-01-21 05:01:00,
2014-01-21 00:06:00,25.4,13.8,29.88,NNW,331,4.0,6.0,61,0.00,,FEW075,0.00,VWS V14.01,2014-01-21 05:06:00,
2014-01-21 00:11:00,25.3,13.8,29.89,NNW,331,1.0,6.0,61,0.00,,FEW075,0.00,VWS V14.01,2014-01-21 05:11:00,
2014-01-21 00:15:00,25.2,13.3,29.89,NW,312,0.0,7.0,60,0.00,,OVC100,0.00,VWS V14.01,2014-01-21 05:15:00,
2014-01-21 00:16:00,25.2,13.6,29.89,NW,312,0.0,6.0,61,0.00,,FEW075,0.00,VWS V14.01,2014-01-21 05:16:00,
2014-01-21 00:21:00,25.1,13.2,29.89,NW,308,2.0,9.0,60,0.00,,FEW075,0.00,VWS V14.01,2014-01-21 05:21:00,
2014-01-21 00:26:00,24.9,13.0,29.89,WNW,294,4.0,9.0,60,0.00,,FEW075,0.00,VWS V14.01,2014-01-21 05:26:00,
2014-01-21 00:30:00,24.8,13.3,29.89,NW,324,4.0,9.0,61,0.00,,OVC100,0.00,VWS V14.01,2014-01-21 05:30:00,
2014-01-21 00:31:00,24.7,13.2,29.89,NW,311,6.0,9.0,61,0.00,,FEW075,0.00,VWS V14.01,2014-01-21 05:31:00,
2014-01-21 00:36:00,24.6,13.1,29.89,NW,320,6.0,9.0,61,0.00,,FEW075,0.00,VWS V14.01,2014-01-21 05:36:00,
2014-01-21 00:41:00,24.5,13.0,29.89,North,350,2.0,9.0,61,0.00,,FEW075,0.00,VWS V14.01,2014-01-21 05:41:00,
2014-01-21 00:45:00,24.4,12.9,29.89,NW,325,5.0,9.0,61,0.00,,CLR,0.00,VWS V14.01,2014-01-21 05:45:00,
2014-01-21 00:46:00,24.3,12.8,29.89,NW,315,2.0,6.0,61,0.00,,FEW075,0.00,VWS V14.01,2014-01-21 05:46:00,
2014-01-21 00:51:00,24.2,12.3,29.90,NW,312,9.0,9.0,60,0.00,,FEW075,0.00,VWS V14.01,2014-01-21 05:51:00,
2014-01-21 00:56:00,24.1,12.2,29.90,North,5,3.0,9.0,60,0.00,,FEW075,0.00,VWS V14.01,2014-01-21 05:56:00,
2014-01-21 00:58:00,24.0,12.1,29.90,NNE,18,2.0,11.0,60,0.00,,FEW075,0.00,VWS V14.01,2014-01-21 05:58:00,
2014-01-21 01:00:00,23.9,12.4,29.90,North,5,4.0,11.0,61,0.00,,OVC100,0.00,VWS V14.01,2014-01-21 06:00:00,
2014-01-21 01:03:00,23.9,12.4,29.90,NNE,21,0.0,7.0,61,0.00,,CLR,0.00,VWS V14.01,2014-01-21 06:03:00,
2014-01-21 01:07:00,23.8,12.3,29.90,WNW,298,4.0,9.0,61,0.00,,CLR,0.00,VWS V14.01,2014-01-21 06:07:00,
2014-01-21 01:12:00,23.7,12.2,29.90,NW,306,7.0,11.0,61,0.00,,CLR,0.00,VWS V14.01,2014-01-21 06:12:00,
2014-01-21 01:15:00,23.6,12.1,29.90,North,360,2.0,11.0,61,0.00,,OVC100,0.00,VWS V14.01,2014-01-21 06:15:00,
2014-01-21 01:17:00,23.5,12.0,29.90,NNW,336,2.0,4.0,61,0.00,,CLR,0.00,VWS V14.01,2014-01-21 06:17:00,
2014-01-21 01:22:00,23.4,11.9,29.91,NW,319,2.0,8.0,61,0.00,,CLR,0.00,VWS V14.01,2014-01-21 06:22:00,
2014-01-21 01:27:00,23.3,11.9,29.91,NNW,341,1.0,8.0,61,0.00,,CLR,0.00,VWS V14.01,2014-01-21 06:27:00,
2014-01-21 01:30:00,23.2,11.8,29.91,NW,321,2.0,8.0,61,0.00,,CLR,0.00,VWS V14.01,2014-01-21 06:30:00,
2014-01-21 01:32:00,23.1,11.7,29.91,NW,321,1.0,2.0,61,0.00,,CLR,0.00,VWS V14.01,2014-01-21 06:32:00,
2014-01-21 01:37:00,22.9,11.5,29.92,NW,316,6.0,9.0,61,0.00,,CLR,0.00,VWS V14.01,2014-01-21 06:37:00,
2014-01-21 01:42:00,22.7,10.9,29.92,NNW,331,4.0,9.0,60,0.00,,CLR,0.00,VWS V14.01,2014-01-21 06:42:00,
2014-01-21 01:45:00,22.6,11.2,29.92,NNW,345,1.0,9.0,61,0.00,,OVC100,0.00,VWS V14.01,2014-01-21 06:45:00,
2014-01-21 01:47:00,22.6,10.8,29.92,NW,309,8.0,8.0,60,0.00,,CLR,0.00,VWS V14.01,2014-01-21 06:47:00,
2014-01-21 01:52:00,22.4,10.6,29.92,NW,306,4.0,8.0,60,0.00,,CLR,0.00,VWS V14.01,2014-01-21 06:52:00,
2014-01-21 01:57:00,22.2,10.4,29.92,North,11,0.0,8.0,60,0.00,,CLR,0.00,VWS V14.01,2014-01-21 06:57:00,
2014-01-21 02:00:00,22.1,10.4,29.92,NNE,26,1.0,8.0,60,0.00,,OVC100,0.00,VWS V14.01,2014-01-21 07:00:00,
2014-01-21 02:02:00,22.1,10.7,29.92,NNW,338,1.0,8.0,61,0.00,,FEW045,0.00,VWS V14.01,2014-01-21 07:02:00,
2014-01-21 02:07:00,22.0,11.0,29.92,NW,325,5.0,8.0,62,0.00,,FEW045,0.00,VWS V14.01,2014-01-21 07:07:00,
2014-01-21 02:11:00,21.8,10.4,29.92,North,360,2.0,8.0,61,0.00,,FEW045,0.00,VWS V14.01,2014-01-21 07:11:00,
2014-01-21 02:15:00,21.8,10.4,29.92,North,360,0.0,8.0,61,0.00,,OVC100,0.00,VWS V14.01,2014-01-21 07:15:00,
2014-01-21 02:16:00,21.7,10.3,29.92,North,360,0.0,2.0,61,0.00,,FEW045,0.00,VWS V14.01,2014-01-21 07:16:00,
2014-01-21 02:22:00,21.6,9.9,29.93,North,360,1.0,2.0,60,0.00,,FEW045,0.00,VWS V14.01,2014-01-21 07:22:00,
2014-01-21 02:26:00,21.5,10.1,29.93,NNW,348,1.0,7.0,61,0.00,,FEW045,0.00,VWS V14.01,2014-01-21 07:26:00,
2014-01-21 02:30:00,21.4,10.1,29.93,North,5,3.0,7.0,61,0.00,,OVC100,0.00,VWS V14.01,2014-01-21 07:30:00,
2014-01-21 02:31:00,21.3,9.6,29.94,NNW,332,2.0,8.0,60,0.00,,FEW045,0.00,VWS V14.01,2014-01-21 07:31:00,
2014-01-21 02:36:00,21.2,9.9,29.94,North,349,1.0,11.0,61,0.00,,FEW045,0.00,VWS V14.01,2014-01-21 07:36:00,
2014-01-21 02:41:00,21.0,9.7,29.94,NNW,338,4.0,11.0,61,0.00,,FEW045,0.00,VWS V14.01,2014-01-21 07:41:00,
2014-01-21 02:45:00,20.9,9.6,29.95,NNW,327,0.0,11.0,61,0.00,,OVC100,0.00,VWS V14.01,2014-01-21 07:45:00,
2014-01-21 02:46:00,20.9,9.6,29.95,NW,315,4.0,8.0,61,0.00,,FEW045,0.00,VWS V14.01,2014-01-21 07:46:00,
2014-01-21 02:51:00,20.8,9.5,29.95,NW,309,2.0,8.0,61,0.00,,FEW045,0.00,VWS V14.01,2014-01-21 07:51:00,
2014-01-21 02:56:00,20.7,9.8,29.94,North,355,4.0,8.0,62,0.00,,FEW045,0.00,VWS V14.01,2014-01-21 07:56:00,
2014-01-21 03:00:00,20.7,9.8,29.94,NNW,339,7.0,8.0,62,0.00,,CLR,0.00,VWS V14.01,2014-01-21 08:00:00,
2014-01-21 03:01:00,20.7,9.4,29.94,NNW,347,2.0,8.0,61,0.00,,CLR,0.00,VWS V14.01,2014-01-21 08:01:00,
2014-01-21 03:06:00,20.6,9.7,29.93,North,355,5.0,12.0,62,0.00,,CLR,0.00,VWS V14.01,2014-01-21 08:06:00,
2014-01-21 03:11:00,20.5,9.6,29.93,NNW,345,4.0,12.0,62,0.00,,CLR,0.00,VWS V14.01,2014-01-21 08:11:00,
2014-01-21 03:15:00,20.5,9.6,29.93,NW,316,2.0,12.0,62,0.00,,OVC100,0.00,VWS V14.01,2014-01-21 08:15:00,
2014-01-21 03:16:00,20.4,9.5,29.93,NNW,335,5.0,9.0,62,0.00,,CLR,0.00,VWS V14.01,2014-01-21 08:16:00,
2014-01-21 03:21:00,20.4,9.5,29.93,NW,317,1.0,11.0,62,0.00,,CLR,0.00,VWS V14.01,2014-01-21 08:21:00,
2014-01-21 03:26:00,20.3,9.7,29.93,NNW,344,5.0,11.0,63,0.00,,CLR,0.00,VWS V14.01,2014-01-21 08:26:00,
2014-01-21 03:30:00,20.3,9.4,29.93,NNE,28,3.0,11.0,62,0.00,,OVC100,0.00,VWS V14.01,2014-01-21 08:30:00,
2014-01-21 03:31:00,20.2,9.3,29.93,NW,313,2.0,6.0,62,0.00,,CLR,0.00,VWS V14.01,2014-01-21 08:31:00,
2014-01-21 03:36:00,20.1,9.5,29.93,NW,306,2.0,7.0,63,0.00,,CLR,0.00,VWS V14.01,2014-01-21 08:36:00,
2014-01-21 03:41:00,20.0,9.1,29.94,NW,313,4.0,7.0,62,0.00,,CLR,0.00,VWS V14.01,2014-01-21 08:41:00,
2014-01-21 03:45:00,20.0,9.1,29.94,NNE,24,0.0,7.0,62,0.00,,OVC100,0.00,VWS V14.01,2014-01-21 08:45:00,
2014-01-21 03:46:00,19.9,9.0,29.94,NW,306,2.0,6.0,62,0.00,,CLR,0.00,VWS V14.01,2014-01-21 08:46:00,
2014-01-21 03:51:00,19.8,8.5,29.94,NW,321,7.0,8.0,61,0.00,,CLR,0.00,VWS V14.01,2014-01-21 08:51:00,
2014-01-21 03:56:00,19.7,8.4,29.94,NNW,342,4.0,9.0,61,0.00,,CLR,0.00,VWS V14.01,2014-01-21 08:56:00,
2014-01-21 04:00:00,19.7,8.4,29.94,NW,316,2.0,9.0,61,0.00,,CLR,0.00,VWS V14.01,2014-01-21 09:00:00,
2014-01-21 04:01:00,19.6,8.4,29.94,NW,310,1.0,8.0,61,0.00,,CLR,0.00,VWS V14.01,2014-01-21 09:01:00,
2014-01-21 04:06:00,19.6,8.4,29.94,NW,323,4.0,8.0,61,0.00,,CLR,0.00,VWS V14.01,2014-01-21 09:06:00,
2014-01-21 04:11:00,19.5,8.3,29.95,NNW,328,1.0,8.0,61,0.00,,CLR,0.00,VWS V14.01,2014-01-21 09:11:00,
2014-01-21 04:15:00,19.4,8.2,29.95,NW,324,1.0,8.0,61,0.00,,OVC100,0.00,VWS V14.01,2014-01-21 09:15:00,
2014-01-21 04:16:00,19.4,8.2,29.95,NNW,327,4.0,7.0,61,0.00,,CLR,0.00,VWS V14.01,2014-01-21 09:16:00,
2014-01-21 04:21:00,19.4,8.5,29.95,NW,323,1.0,7.0,62,0.00,,CLR,0.00,VWS V14.01,2014-01-21 09:21:00,
2014-01-21 04:26:00,19.4,8.5,29.95,NW,323,0.0,7.0,62,0.00,,CLR,0.00,VWS V14.01,2014-01-21 09:26:00,
2014-01-21 04:30:00,19.3,8.4,29.95,NNW,348,1.0,7.0,62,0.00,,OVC100,0.00,VWS V14.01,2014-01-21 09:30:00,
2014-01-21 04:31:00,19.3,8.4,29.95,NNW,348,0.0,1.0,62,0.00,,CLR,0.00,VWS V14.01,2014-01-21 09:31:00,
2014-01-21 04:36:00,19.3,8.1,29.95,NNW,348,0.0,4.0,61,0.00,,CLR,0.00,VWS V14.01,2014-01-21 09:36:00,
2014-01-21 04:41:00,19.3,8.1,29.95,NW,324,4.0,7.0,61,0.00,,CLR,0.00,VWS V14.01,2014-01-21 09:41:00,
2014-01-21 04:45:00,19.3,8.1,29.96,NW,315,1.0,7.0,61,0.00,,CLR,0.00,VWS V14.01,2014-01-21 09:45:00,
2014-01-21 04:46:00,19.3,8.1,29.95,NW,315,0.0,4.0,61,0.00,,CLR,0.00,VWS V14.01,2014-01-21 09:46:00,
2014-01-21 04:51:00,19.2,8.0,29.95,NW,319,1.0,4.0,61,0.00,,CLR,0.00,VWS V14.01,2014-01-21 09:51:00,
2014-01-21 04:56:00,19.2,8.3,29.95,NW,318,1.0,5.0,62,0.00,,CLR,0.00,VWS V14.01,2014-01-21 09:56:00,
2014-01-21 05:00:00,19.2,8.3,29.96,NW,318,0.0,5.0,62,0.00,,CLR,0.00,VWS V14.01,2014-01-21 10:00:00,
2014-01-21 05:01:00,19.1,8.2,29.96,NNW,342,1.0,5.0,62,0.00,,CLR,0.00,VWS V14.01,2014-01-21 10:01:00,
2014-01-21 05:06:00,19.1,7.9,29.96,NNW,331,0.0,6.0,61,0.00,,CLR,0.00,VWS V14.01,2014-01-21 10:06:00,
2014-01-21 05:11:00,19.1,7.9,29.96,North,350,1.0,7.0,61,0.00,,CLR,0.00,VWS V14.01,2014-01-21 10:11:00,
2014-01-21 05:15:00,19.0,8.1,29.95,NW,325,5.0,7.0,62,0.00,,CLR,0.00,VWS V14.01,2014-01-21 10:15:00,
2014-01-21 05:16:00,19.0,8.1,29.95,NNW,335,2.0,6.0,62,0.00,,CLR,0.00,VWS V14.01,2014-01-21 10:16:00,
2014-01-21 05:21:00,19.0,7.8,29.95,NW,324,2.0,7.0,61,0.00,,CLR,0.00,VWS V14.01,2014-01-21 10:21:00,
2014-01-21 05:26:00,18.9,8.1,29.96,NNW,348,2.0,7.0,62,0.00,,CLR,0.00,VWS V14.01,2014-01-21 10:26:00,
2014-01-21 05:30:00,18.9,8.1,29.97,North,355,1.0,7.0,62,0.00,,OVC100,0.00,VWS V14.01,2014-01-21 10:30:00,
2014-01-21 05:31:00,18.9,8.1,29.97,NW,325,1.0,5.0,62,0.00,,CLR,0.00,VWS V14.01,2014-01-21 10:31:00,
2014-01-21 05:36:00,18.9,8.1,29.97,NNW,327,5.0,5.0,62,0.00,,CLR,0.00,VWS V14.01,2014-01-21 10:36:00,
2014-01-21 05:41:00,18.8,7.9,29.97,NW,323,4.0,5.0,62,0.00,,CLR,0.00,VWS V14.01,2014-01-21 10:41:00,
2014-01-21 05:45:00,18.8,7.6,29.97,NW,309,2.0,5.0,61,0.00,,OVC100,0.00,VWS V14.01,2014-01-21 10:45:00,
2014-01-21 05:46:00,18.8,7.9,29.97,NW,309,0.0,2.0,62,0.00,,CLR,0.00,VWS V14.01,2014-01-21 10:46:00,
2014-01-21 05:51:00,18.8,7.9,29.97,NW,309,1.0,4.0,62,0.00,,CLR,0.00,VWS V14.01,2014-01-21 10:51:00,
2014-01-21 05:56:00,18.8,7.9,29.96,NW,309,0.0,4.0,62,0.00,,CLR,0.00,VWS V14.01,2014-01-21 10:56:00,
2014-01-21 06:00:00,18.8,7.9,29.96,NW,309,0.0,4.0,62,0.00,,CLR,0.00,VWS V14.01,2014-01-21 11:00:00,
2014-01-21 06:01:00,18.8,8.3,29.96,NW,309,0.0,0.0,63,0.00,,CLR,0.00,VWS V14.01,2014-01-21 11:01:00,
2014-01-21 06:06:00,18.8,8.3,29.96,NW,309,0.0,1.0,63,0.00,,CLR,0.00,VWS V14.01,2014-01-21 11:06:00,
2014-01-21 06:11:00,18.8,8.3,29.96,NW,309,0.0,1.0,63,0.00,,CLR,0.00,VWS V14.01,2014-01-21 11:11:00,
2014-01-21 06:15:00,18.8,8.3,29.97,NW,309,0.0,5.0,63,0.00,,OVC100,0.00,VWS V14.01,2014-01-21 11:15:00,
2014-01-21 06:16:00,18.8,8.3,29.97,NW,309,0.0,0.0,63,0.00,,CLR,0.00,VWS V14.01,2014-01-21 11:16:00,
2014-01-21 06:21:00,18.8,7.9,29.97,NNE,20,1.0,8.0,62,0.00,,CLR,0.00,VWS V14.01,2014-01-21 11:21:00,
2014-01-21 06:26:00,18.7,7.9,29.97,NNE,20,0.0,8.0,62,0.00,,CLR,0.00,VWS V14.01,2014-01-21 11:26:00,
2014-01-21 06:30:00,18.6,7.8,29.97,NW,306,4.0,8.0,62,0.00,,OVC100,0.00,VWS V14.01,2014-01-21 11:30:00,
2014-01-21 06:31:00,18.6,7.8,29.97,NNW,327,1.0,4.0,62,0.00,,CLR,0.00,VWS V14.01,2014-01-21 11:31:00,
2014-01-21 06:36:00,18.5,7.7,29.97,NW,321,1.0,4.0,62,0.00,,CLR,0.00,VWS V14.01,2014-01-21 11:36:00,
2014-01-21 06:41:00,18.5,7.7,29.97,NW,316,2.0,4.0,62,0.00,,CLR,0.00,VWS V14.01,2014-01-21 11:41:00,
2014-01-21 06:45:00,18.5,7.7,29.97,NW,319,2.0,5.0,62,0.00,,CLR,0.00,VWS V14.01,2014-01-21 11:45:00,
2014-01-21 06:46:00,18.4,7.6,29.97,NNW,342,0.0,8.0,62,0.00,,CLR,0.00,VWS V14.01,2014-01-21 11:46:00,
2014-01-21 06:51:00,18.4,7.6,29.98,NW,312,2.0,8.0,62,0.00,,CLR,0.00,VWS V14.01,2014-01-21 11:51:00,
2014-01-21 06:56:00,18.2,7.4,29.98,WNW,303,6.0,8.0,62,0.00,,CLR,0.00,VWS V14.01,2014-01-21 11:56:00,
2014-01-21 07:00:00,18.2,7.0,29.98,WNW,285,1.0,8.0,61,0.00,,OVC100,0.00,VWS V14.01,2014-01-21 12:00:00,
2014-01-21 07:01:00,18.1,6.9,29.98,NNE,13,2.0,4.0,61,0.00,,SCT120,0.00,VWS V14.01,2014-01-21 12:01:00,
2014-01-21 07:06:00,18.0,6.8,29.99,NW,307,0.0,11.0,61,0.00,,SCT120,0.00,VWS V14.01,2014-01-21 12:06:00,
2014-01-21 07:11:00,18.0,6.8,29.99,NNW,327,0.0,11.0,61,0.00,,SCT120,0.00,VWS V14.01,2014-01-21 12:11:00,
2014-01-21 07:15:00,17.9,6.7,29.99,North,5,2.0,11.0,61,0.00,,CLR,0.00,VWS V14.01,2014-01-21 12:15:00,
2014-01-21 07:16:00,17.9,6.7,29.99,North,5,3.0,12.0,61,0.00,,SCT120,0.00,VWS V14.01,2014-01-21 12:16:00,
2014-01-21 07:21:00,17.8,6.3,29.99,NNW,328,4.0,12.0,60,0.00,,SCT120,0.00,VWS V14.01,2014-01-21 12:21:00,
2014-01-21 07:26:00,17.7,6.2,29.99,NNE,22,1.0,12.0,60,0.00,,SCT120,0.00,VWS V14.01,2014-01-21 12:26:00,
2014-01-21 07:30:00,17.7,5.8,29.99,NNW,329,4.0,12.0,59,0.00,,CLR,0.00,VWS V14.01,2014-01-21 12:30:00,
2014-01-21 07:31:00,17.7,6.2,29.99,NNW,338,2.0,4.0,60,0.00,,SCT120,0.00,VWS V14.01,2014-01-21 12:31:00,
2014-01-21 07:36:00,17.6,6.1,29.99,NNW,328,5.0,7.0,60,0.00,,SCT120,0.00,VWS V14.01,2014-01-21 12:36:00,
2014-01-21 07:41:00,17.5,6.0,29.98,North,355,2.0,7.0,60,0.00,,SCT120,0.00,VWS V14.01,2014-01-21 12:41:00,
2014-01-21 07:45:00,17.5,6.0,29.98,WNW,296,2.0,7.0,60,0.00,,OVC100,0.00,VWS V14.01,2014-01-21 12:45:00,
2014-01-21 07:46:00,17.5,6.0,29.99,North,9,0.0,3.0,60,0.00,,SCT120,0.00,VWS V14.01,2014-01-21 12:46:00,
2014-01-21 07:51:00,17.5,6.0,29.99,NW,326,2.0,5.0,60,0.00,,SCT120,0.00,VWS V14.01,2014-01-21 12:51:00,
2014-01-21 07:56:00,17.5,5.6,29.98,NW,312,1.0,7.0,59,0.00,,SCT120,0.00,VWS V14.01,2014-01-21 12:56:00,
2014-01-21 08:00:00,17.5,5.6,29.98,NW,323,6.0,7.0,59,0.00,,CLR,0.00,VWS V14.01,2014-01-21 13:00:00,
2014-01-21 08:01:00,17.5,5.6,29.98,WNW,300,8.0,9.0,59,0.00,,SCT120,0.00,VWS V14.01,2014-01-21 13:01:00,
2014-01-21 08:06:00,17.3,5.1,29.98,North,355,2.0,11.0,58,0.00,,SCT120,0.00,VWS V14.01,2014-01-21 13:06:00,
2014-01-21 08:11:00,17.1,4.5,29.99,NW,314,4.0,12.0,57,0.00,,SCT120,0.00,VWS V14.01,2014-01-21 13:11:00,
2014-01-21 08:15:00,17.1,4.5,29.99,NW,321,5.0,12.0,57,0.00,,OVC100,0.00,VWS V14.01,2014-01-21 13:15:00,
2014-01-21 08:16:00,17.0,4.0,29.99,NNW,337,4.0,7.0,56,0.00,,SCT120,0.00,VWS V14.01,2014-01-21 13:16:00,
2014-01-21 08:21:00,16.9,3.9,29.99,NW,324,4.0,13.0,56,0.00,,SCT120,0.00,VWS V14.01,2014-01-21 13:21:00,
2014-01-21 08:26:00,16.8,3.8,30.00,West,280,0.0,13.0,56,0.00,,SCT120,0.00,VWS V14.01,2014-01-21 13:26:00,
2014-01-21 08:30:00,16.8,3.8,29.99,NNW,331,0.0,13.0,56,0.00,,OVC100,0.00,VWS V14.01,2014-01-21 13:30:00,
2014-01-21 08:31:00,16.8,4.2,29.99,North,360,4.0,4.0,57,0.00,,SCT120,0.00,VWS V14.01,2014-01-21 13:31:00,
2014-01-21 08:36:00,16.8,3.8,29.99,NNW,348,0.0,7.0,56,0.00,,SCT120,0.00,VWS V14.01,2014-01-21 13:36:00,
2014-01-21 08:41:00,16.8,3.5,29.98,NNE,19,3.0,8.0,55,0.00,,SCT120,0.00,VWS V14.01,2014-01-21 13:41:00,
2014-01-21 08:45:00,16.7,3.7,29.99,West,277,6.0,8.0,56,0.00,,CLR,0.00,VWS V14.01,2014-01-21 13:45:00,
2014-01-21 08:46:00,16.7,3.3,29.99,NNW,342,7.0,8.0,55,0.00,,SCT120,0.00,VWS V14.01,2014-01-21 13:46:00,
2014-01-21 08:51:00,16.6,3.7,29.99,NNW,334,2.0,8.0,56,0.00,,SCT120,0.00,VWS V14.01,2014-01-21 13:51:00,
2014-01-21 08:56:00,16.6,3.3,29.99,NNE,14,4.0,8.0,55,0.00,,SCT120,0.00,VWS V14.01,2014-01-21 13:56:00,
2014-01-21 09:00:00,16.6,3.3,29.99,WNW,302,11.0,12.0,55,0.00,,OVC100,0.00,VWS V14.01,2014-01-21 14:00:00,
2014-01-21 09:01:00,16.5,2.8,29.98,NNW,328,0.0,14.0,54,0.00,,OVC100,0.00,VWS V14.01,2014-01-21 14:01:00,
2014-01-21 09:06:00,16.4,2.7,29.98,North,360,6.0,14.0,54,0.00,,OVC100,0.00,VWS V14.01,2014-01-21 14:06:00,
2014-01-21 09:11:00,16.2,2.5,29.98,North,355,2.0,14.0,54,0.00,,OVC100,0.00,VWS V14.01,2014-01-21 14:11:00,
2014-01-21 09:15:00,16.3,3.4,29.98,WNW,300,7.0,14.0,56,0.00,,OVC100,0.00,VWS V14.01,2014-01-21 14:15:00,
2014-01-21 09:16:00,16.3,3.0,29.97,North,11,2.0,7.0,55,0.00,,OVC100,0.00,VWS V14.01,2014-01-21 14:16:00,
2014-01-21 09:21:00,16.2,2.9,29.98,North,355,5.0,8.0,55,0.00,,OVC100,0.00,VWS V14.01,2014-01-21 14:21:00,
2014-01-21 09:26:00,16.2,2.9,29.99,NW,304,7.0,8.0,55,0.00,,OVC100,0.00,VWS V14.01,2014-01-21 14:26:00,
2014-01-21 09:30:00,16.2,2.5,30.00,NW,315,1.0,8.0,54,0.00,,CLR,0.00,VWS V14.01,2014-01-21 14:30:00,
2014-01-21 09:31:00,16.1,2.4,30.00,NW,308,2.0,6.0,54,0.00,,OVC100,0.00,VWS V14.01,2014-01-21 14:31:00,
2014-01-21 09:36:00,16.2,2.9,30.00,NNE,26,2.0,8.0,55,0.00,,OVC100,0.00,VWS V14.01,2014-01-21 14:36:00,
2014-01-21 09:41:00,16.4,3.5,30.00,NNE,15,0.0,8.0,56,0.00,,OVC100,0.00,VWS V14.01,2014-01-21 14:41:00,
2014-01-21 09:45:00,16.4,3.1,30.00,NW,304,6.0,8.0,55,0.00,,OVC100,0.00,VWS V14.01,2014-01-21 14:45:00,
2014-01-21 09:46:00,16.4,3.1,30.00,NNW,339,1.0,7.0,55,0.00,,OVC100,0.00,VWS V14.01,2014-01-21 14:46:00,
2014-01-21 09:51:00,16.4,3.1,30.01,NW,321,1.0,7.0,55,0.00,,OVC100,0.00,VWS V14.01,2014-01-21 14:51:00,
2014-01-21 09:56:00,16.5,2.8,30.01,NNW,327,1.0,8.0,54,0.00,,OVC100,0.00,VWS V14.01,2014-01-21 14:56:00,
2014-01-21 10:00:00,16.4,2.7,30.01,NW,311,1.0,8.0,54,0.00,,OVC100,0.00,VWS V14.01,2014-01-21 15:00:00,
2014-01-21 10:01:00,16.4,2.7,30.01,NW,307,2.0,5.0,54,0.00,,OVC085,0.00,VWS V14.01,2014-01-21 15:01:00,
2014-01-21 10:06:00,16.4,3.1,30.02,North,349,2.0,11.0,55,0.00,,OVC085,0.00,VWS V14.01,2014-01-21 15:06:00,
2014-01-21 10:11:00,16.5,3.2,30.02,NW,311,1.0,11.0,55,0.00,,OVC085,0.00,VWS V14.01,2014-01-21 15:11:00,
2014-01-21 10:15:00,16.5,3.2,30.02,NW,318,2.0,11.0,55,0.00,,CLR,0.00,VWS V14.01,2014-01-21 15:15:00,
2014-01-21 10:16:00,16.4,3.1,30.02,NNW,331,4.0,5.0,55,0.00,,OVC085,0.00,VWS V14.01,2014-01-21 15:16:00,
2014-01-21 10:21:00,16.5,3.2,30.02,North,349,1.0,5.0,55,0.00,,OVC085,0.00,VWS V14.01,2014-01-21 15:21:00,
2014-01-21 10:26:00,16.5,3.2,30.02,NW,314,1.0,8.0,55,0.00,,OVC085,0.00,VWS V14.01,2014-01-21 15:26:00,
2014-01-21 10:30:00,16.5,3.2,30.02,NW,308,0.0,8.0,55,0.00,,OVC100,0.00,VWS V14.01,2014-01-21 15:30:00,
2014-01-21 10:31:00,16.6,3.3,30.02,NNW,333,4.0,6.0,55,0.00,,OVC085,0.00,VWS V14.01,2014-01-21 15:31:00,
2014-01-21 10:36:00,16.6,3.7,30.02,NW,323,5.0,8.0,56,0.00,,OVC085,0.00,VWS V14.01,2014-01-21 15:36:00,
2014-01-21 10:41:00,16.6,3.7,30.02,NW,316,5.0,8.0,56,0.00,,OVC085,0.00,VWS V14.01,2014-01-21 15:41:00,
2014-01-21 10:45:00,16.4,3.8,30.02,NW,315,6.0,11.0,57,0.00,,OVC100,0.00,VWS V14.01,2014-01-21 15:45:00,
2014-01-21 10:46:00,16.4,3.8,30.02,NW,311,6.0,7.0,57,0.00,,OVC085,0.00,VWS V14.01,2014-01-21 15:46:00,
2014-01-21 10:51:00,16.3,4.1,30.02,NW,318,9.0,9.0,58,0.00,,OVC085,0.00,VWS V14.01,2014-01-21 15:51:00,
2014-01-21 10:56:00,16.2,4.8,30.02,NW,321,6.0,12.0,60,0.00,,OVC085,0.00,VWS V14.01,2014-01-21 15:56:00,
2014-01-21 11:00:00,16.0,4.9,30.02,NNW,343,1.0,12.0,61,0.00,,CLR,0.00,VWS V14.01,2014-01-21 16:00:00,
2014-01-21 11:01:00,16.0,5.3,30.02,NW,304,1.0,7.0,62,0.00,,,0.00,VWS V14.01,2014-01-21 16:01:00,
2014-01-21 11:06:00,15.9,5.6,30.02,NW,323,5.0,9.0,63,0.00,,,0.00,VWS V14.01,2014-01-21 16:06:00,
2014-01-21 11:11:00,15.7,6.0,30.02,NW,311,0.0,9.0,65,0.00,,,0.00,VWS V14.01,2014-01-21 16:11:00,
2014-01-21 11:15:00,15.5,5.8,30.02,North,5,3.0,9.0,65,0.00,,OVC100,0.00,VWS V14.01,2014-01-21 16:15:00,
2014-01-21 11:16:00,15.5,6.2,30.02,NW,326,4.0,6.0,66,0.00,,,0.00,VWS V14.01,2014-01-21 16:16:00,
2014-01-21 11:21:00,15.4,6.4,30.01,North,355,6.0,8.0,67,0.00,,,0.00,VWS V14.01,2014-01-21 16:21:00,
2014-01-21 11:26:00,15.2,6.6,30.01,NW,318,2.0,8.0,68,0.00,,,0.00,VWS V14.01,2014-01-21 16:26:00,
2014-01-21 11:30:00,15.2,6.9,30.01,NNW,333,6.0,8.0,69,0.00,,OVC100,0.00,VWS V14.01,2014-01-21 16:30:00,
2014-01-21 11:31:00,15.1,6.8,30.01,NNW,336,4.0,6.0,69,0.00,,,0.00,VWS V14.01,2014-01-21 16:31:00,
2014-01-21 11:36:00,15.0,7.0,30.00,NW,315,2.0,8.0,70,0.00,,,0.00,VWS V14.01,2014-01-21 16:36:00,
2014-01-21 11:41:00,14.9,7.2,30.00,NW,315,6.0,9.0,71,0.00,,,0.00,VWS V14.01,2014-01-21 16:41:00,
2014-01-21 11:45:00,14.8,7.1,30.00,NNW,334,7.0,12.0,71,0.00,,CLR,0.00,VWS V14.01,2014-01-21 16:45:00,
2014-01-21 11:46:00,14.7,7.0,30.00,NW,325,2.0,9.0,71,0.00,,,0.00,VWS V14.01,2014-01-21 16:46:00,
2014-01-21 11:51:00,14.5,7.4,30.00,NW,306,5.0,9.0,73,0.00,,,0.00,VWS V14.01,2014-01-21 16:51:00,
2014-01-21 11:56:00,14.4,7.6,30.00,NW,317,5.0,9.0,74,0.00,,,0.00,VWS V14.01,2014-01-21 16:56:00,
2014-01-21 12:00:00,14.4,7.6,30.00,NW,310,8.0,9.0,74,0.00,,CLR,0.00,VWS V14.01,2014-01-21 17:00:00,
2014-01-21 12:01:00,14.4,7.6,30.00,NW,313,4.0,9.0,74,0.00,,,0.00,VWS V14.01,2014-01-21 17:01:00,
2014-01-21 12:06:00,14.3,7.8,30.00,NW,323,4.0,9.0,75,0.00,,,0.00,VWS V14.01,2014-01-21 17:06:00,
2014-01-21 12:10:00,14.4,8.2,30.00,NW,304,0.0,9.0,76,0.00,,,0.00,VWS V14.01,2014-01-21 17:10:00,
2014-01-21 12:15:00,14.4,8.2,30.00,North,11,0.0,9.0,76,0.00,,CLR,0.00,VWS V14.01,2014-01-21 17:15:00,
2014-01-21 12:16:00,14.4,8.2,30.00,NW,317,5.0,6.0,76,0.00,,,0.00,VWS V14.01,2014-01-21 17:16:00,
2014-01-21 12:20:00,14.4,8.2,29.99,NW,321,0.0,6.0,76,0.00,,,0.00,VWS V14.01,2014-01-21 17:20:00,
2014-01-21 12:25:00,14.3,8.1,29.99,NW,315,4.0,8.0,76,0.00,,,0.00,VWS V14.01,2014-01-21 17:25:00,
2014-01-21 12:30:00,14.3,8.1,29.98,NNW,331,2.0,2.0,76,0.00,,,0.00,VWS V14.01,2014-01-21 17:30:00,
2014-01-21 12:35:00,14.3,8.1,29.98,NNW,333,1.0,8.0,76,0.00,,,0.00,VWS V14.01,2014-01-21 17:35:00,
2014-01-21 12:40:00,14.2,8.0,29.97,WNW,297,0.0,8.0,76,0.00,,,0.00,VWS V14.01,2014-01-21 17:40:00,
2014-01-21 12:45:00,14.1,8.2,29.97,NW,322,4.0,4.0,77,0.00,,,0.00,VWS V14.01,2014-01-21 17:45:00,
2014-01-21 12:50:00,14.0,8.4,29.97,NW,304,4.0,7.0,78,0.00,,,0.00,VWS V14.01,2014-01-21 17:50:00,
2014-01-21 12:55:00,14.0,8.4,29.96,NNW,342,2.0,7.0,78,0.00,,,0.00,VWS V14.01,2014-01-21 17:55:00,
2014-01-21 13:00:00,14.0,8.4,29.96,NW,304,6.0,9.0,78,0.00,,,0.00,VWS V14.01,2014-01-21 18:00:00,
2014-01-21 13:05:00,13.9,8.6,29.95,NW,321,4.0,11.0,79,0.00,,,0.00,VWS V14.01,2014-01-21 18:05:00,
2014-01-21 13:10:00,14.0,8.7,29.94,NNW,338,4.0,11.0,79,0.00,,,0.00,VWS V14.01,2014-01-21 18:10:00,
2014-01-21 13:15:00,14.0,8.7,29.94,NNW,342,4.0,6.0,79,0.00,,,0.00,VWS V14.01,2014-01-21 18:15:00,
2014-01-21 13:20:00,14.0,8.7,29.93,NW,308,4.0,7.0,79,0.00,,,0.00,VWS V14.01,2014-01-21 18:20:00,
2014-01-21 13:25:00,13.9,8.9,29.93,NW,325,6.0,9.0,80,0.00,,,0.00,VWS V14.01,2014-01-21 18:25:00,
2014-01-21 13:30:00,13.9,8.9,29.93,North,355,4.0,6.0,80,0.00,,,0.00,VWS V14.01,2014-01-21 18:30:00,
2014-01-21 13:35:00,13.9,8.9,29.92,NW,317,4.0,6.0,80,0.00,,,0.00,VWS V14.01,2014-01-21 18:35:00,
2014-01-21 13:40:00,13.9,8.9,29.91,North,360,3.0,9.0,80,0.00,,,0.00,VWS V14.01,2014-01-21 18:40:00,
2014-01-21 13:45:00,13.9,9.2,29.90,NNW,333,2.0,5.0,81,0.00,,,0.00,VWS V14.01,2014-01-21 18:45:00,
2014-01-21 13:50:00,13.8,9.1,29.90,North,355,6.0,11.0,81,0.00,,,0.00,VWS V14.01,2014-01-21 18:50:00,
2014-01-21 13:55:00,13.7,9.0,29.90,NW,315,5.0,12.0,81,0.00,,,0.00,VWS V14.01,2014-01-21 18:55:00,
2014-01-21 14:00:00,13.7,9.0,29.91,NNW,346,2.0,8.0,81,0.00,,,0.00,VWS V14.01,2014-01-21 19:00:00,
2014-01-21 14:05:00,13.7,9.2,29.91,NW,325,5.0,8.0,82,0.00,,,0.00,VWS V14.01,2014-01-21 19:05:00,
2014-01-21 14:10:00,13.7,9.2,29.91,NW,311,5.0,8.0,82,0.00,,,0.00,VWS V14.01,2014-01-21 19:10:00,
2014-01-21 14:15:00,13.6,9.1,29.90,NNE,17,3.0,4.0,82,0.00,,,0.00,VWS V14.01,2014-01-21 19:15:00,
2014-01-21 14:20:00,13.7,9.2,29.90,NNW,333,4.0,9.0,82,0.00,,,0.00,VWS V14.01,2014-01-21 19:20:00,
2014-01-21 14:25:00,13.6,9.1,29.90,NNW,331,1.0,9.0,82,0.00,,,0.00,VWS V14.01,2014-01-21 19:25:00,
2014-01-21 14:30:00,13.7,9.2,29.90,NNW,338,4.0,6.0,82,0.00,,,0.00,VWS V14.01,2014-01-21 19:30:00,
2014-01-21 14:35:00,13.7,9.5,29.89,NW,325,5.0,12.0,83,0.00,,,0.00,VWS V14.01,2014-01-21 19:35:00,
2014-01-21 14:40:00,13.7,9.2,29.90,NW,323,1.0,12.0,82,0.00,,,0.00,VWS V14.01,2014-01-21 19:40:00,
2014-01-21 14:45:00,13.6,9.4,29.89,NW,316,0.0,7.0,83,0.00,,,0.00,VWS V14.01,2014-01-21 19:45:00,
2014-01-21 14:50:00,13.7,9.5,29.89,NNW,327,5.0,11.0,83,0.00,,,0.00,VWS V14.01,2014-01-21 19:50:00,
2014-01-21 14:55:00,13.7,9.5,29.89,NNW,332,2.0,11.0,83,0.00,,,0.00,VWS V14.01,2014-01-21 19:55:00,
2014-01-21 15:00:00,13.7,9.5,29.90,NW,306,8.0,9.0,83,0.00,,,0.00,VWS V14.01,2014-01-21 20:00:00,
2014-01-21 15:05:00,13.7,9.5,29.90,NW,311,2.0,9.0,83,0.00,,,0.00,VWS V14.01,2014-01-21 20:05:00,
2014-01-21 15:10:00,13.8,9.9,29.90,WNW,294,2.0,9.0,84,0.00,,,0.00,VWS V14.01,2014-01-21 20:10:00,
2014-01-21 15:15:00,13.9,10.0,29.90,NNW,342,6.0,7.0,84,0.00,,,0.00,VWS V14.01,2014-01-21 20:15:00,
2014-01-21 15:20:00,13.8,9.9,29.90,NW,305,4.0,11.0,84,0.00,,,0.00,VWS V14.01,2014-01-21 20:20:00,
2014-01-21 15:25:00,13.7,9.8,29.90,NW,326,2.0,11.0,84,0.00,,,0.00,VWS V14.01,2014-01-21 20:25:00,
2014-01-21 15:30:00,13.7,9.8,29.91,NNW,334,4.0,4.0,84,0.00,,,0.00,VWS V14.01,2014-01-21 20:30:00,
2014-01-21 15:35:00,13.7,9.8,29.90,NW,323,0.0,6.0,84,0.00,,,0.00,VWS V14.01,2014-01-21 20:35:00,
2014-01-21 15:40:00,13.7,10.0,29.89,North,360,1.0,6.0,85,0.00,,,0.00,VWS V14.01,2014-01-21 20:40:00,
2014-01-21 15:45:00,13.7,10.0,29.89,NNW,342,4.0,6.0,85,0.00,,,0.00,VWS V14.01,2014-01-21 20:45:00,
2014-01-21 15:50:00,13.6,9.7,29.89,NNW,347,4.0,7.0,84,0.00,,,0.00,VWS V14.01,2014-01-21 20:50:00,
2014-01-21 15:55:00,13.6,9.9,29.90,NNW,331,6.0,9.0,85,0.00,,,0.00,VWS V14.01,2014-01-21 20:55:00,
2014-01-21 16:00:00,13.5,9.8,29.90,NNW,329,2.0,4.0,85,0.00,,,0.00,VWS V14.01,2014-01-21 21:00:00,
2014-01-21 16:05:00,13.5,9.8,29.90,North,355,0.0,6.0,85,0.00,,,0.00,VWS V14.01,2014-01-21 21:05:00,
2014-01-21 16:10:00,13.5,9.8,29.90,NNW,335,2.0,6.0,85,0.00,,,0.00,VWS V14.01,2014-01-21 21:10:00,
2014-01-21 16:15:00,13.5,9.8,29.90,WNW,300,9.0,9.0,85,0.00,,,0.00,VWS V14.01,2014-01-21 21:15:00,
2014-01-21 16:20:00,13.5,9.8,29.90,NNW,342,0.0,9.0,85,0.00,,,0.00,VWS V14.01,2014-01-21 21:20:00,
2014-01-21 16:25:00,13.5,9.8,29.90,NNW,340,1.0,9.0,85,0.00,,,0.00,VWS V14.01,2014-01-21 21:25:00,
2014-01-21 16:30:00,13.5,9.8,29.90,NW,323,6.0,7.0,85,0.00,,,0.00,VWS V14.01,2014-01-21 21:30:00,
2014-01-21 16:35:00,13.5,9.8,29.90,NW,322,4.0,7.0,85,0.00,,,0.00,VWS V14.01,2014-01-21 21:35:00,
2014-01-21 16:40:00,13.5,9.8,29.90,NW,321,4.0,8.0,85,0.00,,,0.00,VWS V14.01,2014-01-21 21:40:00,
2014-01-21 16:45:00,13.4,9.7,29.91,NNE,33,1.0,5.0,85,0.00,,,0.00,VWS V14.01,2014-01-21 21:45:00,
2014-01-21 16:50:00,13.5,9.8,29.91,NNW,337,1.0,5.0,85,0.00,,,0.00,VWS V14.01,2014-01-21 21:50:00,
2014-01-21 16:55:00,13.5,9.8,29.91,NW,309,1.0,5.0,85,0.00,,,0.00,VWS V14.01,2014-01-21 21:55:00,
2014-01-21 17:00:00,13.5,9.8,29.91,North,355,0.0,6.0,85,0.00,,,0.00,VWS V14.01,2014-01-21 22:00:00,
2014-01-21 17:05:00,13.5,9.8,29.90,NW,315,4.0,6.0,85,0.00,,,0.00,VWS V14.01,2014-01-21 22:05:00,
2014-01-21 17:10:00,13.5,9.8,29.91,NW,317,4.0,8.0,85,0.00,,,0.00,VWS V14.01,2014-01-21 22:10:00,
2014-01-21 17:15:00,13.5,9.8,29.91,NNW,344,2.0,4.0,85,0.00,,,0.00,VWS V14.01,2014-01-21 22:15:00,
2014-01-21 17:20:00,13.4,9.7,29.90,North,355,4.0,7.0,85,0.00,,,0.00,VWS V14.01,2014-01-21 22:20:00,
2014-01-21 17:25:00,13.4,9.7,29.90,WNW,299,6.0,11.0,85,0.00,,,0.00,VWS V14.01,2014-01-21 22:25:00,
2014-01-21 17:30:00,13.4,9.7,29.90,NNW,333,0.0,2.0,85,0.00,,,0.00,VWS V14.01,2014-01-21 22:30:00,
2014-01-21 17:35:00,13.4,9.7,29.90,NNW,328,2.0,4.0,85,0.00,,,0.00,VWS V14.01,2014-01-21 22:35:00,
2014-01-21 17:40:00,13.3,9.6,29.90,NW,314,5.0,6.0,85,0.00,,,0.00,VWS V14.01,2014-01-21 22:40:00,
2014-01-21 17:45:00,13.2,9.6,29.90,NNW,345,5.0,8.0,85,0.00,,,0.00,VWS V14.01,2014-01-21 22:45:00,
2014-01-21 17:50:00,13.1,9.4,29.90,WNW,303,4.0,8.0,85,0.00,,,0.00,VWS V14.01,2014-01-21 22:50:00,
2014-01-21 17:55:00,13.0,9.4,29.90,NNW,328,4.0,8.0,85,0.00,,,0.00,VWS V14.01,2014-01-21 22:55:00,
2014-01-21 18:00:00,13.0,9.4,29.91,North,355,0.0,1.0,85,0.00,,,0.00,VWS V14.01,2014-01-21 23:00:00,
2014-01-21 18:05:00,13.0,9.4,29.91,NW,324,1.0,6.0,85,0.00,,,0.00,VWS V14.01,2014-01-21 23:05:00,
2014-01-21 18:10:00,12.9,9.2,29.91,NW,313,1.0,6.0,85,0.00,,,0.00,VWS V14.01,2014-01-21 23:10:00,
2014-01-21 18:15:00,12.9,9.2,29.91,NW,304,1.0,4.0,85,0.00,,,0.00,VWS V14.01,2014-01-21 23:15:00,
2014-01-21 18:20:00,12.9,9.2,29.91,NW,326,0.0,5.0,85,0.00,,,0.00,VWS V14.01,2014-01-21 23:20:00,
2014-01-21 18:25:00,12.8,9.1,29.91,NNW,327,2.0,6.0,85,0.00,,,0.00,VWS V14.01,2014-01-21 23:25:00,
2014-01-21 18:30:00,12.8,9.1,29.92,NNW,327,2.0,5.0,85,0.00,,,0.00,VWS V14.01,2014-01-21 23:30:00,
2014-01-21 18:35:00,12.7,9.1,29.91,NW,321,1.0,5.0,85,0.00,,,0.00,VWS V14.01,2014-01-21 23:35:00,
2014-01-21 18:40:00,12.7,9.1,29.92,NNW,345,4.0,8.0,85,0.00,,,0.00,VWS V14.01,2014-01-21 23:40:00,
2014-01-21 18:45:00,12.6,9.0,29.92,NW,317,0.0,5.0,85,0.00,,,0.00,VWS V14.01,2014-01-21 23:45:00,
2014-01-21 18:50:00,12.6,9.0,29.92,NW,317,0.0,6.0,85,0.00,,,0.00,VWS V14.01,2014-01-21 23:50:00,
2014-01-21 18:55:00,12.4,8.8,29.92,NW,317,0.0,6.0,85,0.00,,,0.00,VWS V14.01,2014-01-21 23:55:00,
2014-01-21 19:00:00,12.3,8.4,29.92,NW,317,0.0,1.0,84,0.00,,,0.00,VWS V14.01,2014-01-22 00:00:00,
2014-01-21 19:05:00,12.2,8.3,29.92,WNW,298,7.0,7.0,84,0.00,,,0.00,VWS V14.01,2014-01-22 00:05:00,
2014-01-21 19:10:00,12.2,8.6,29.92,NW,315,2.0,7.0,85,0.00,,,0.00,VWS V14.01,2014-01-22 00:10:00,
2014-01-21 19:15:00,12.0,8.1,29.92,NNW,328,0.0,1.0,84,0.00,,,0.00,VWS V14.01,2014-01-22 00:15:00,
2014-01-21 19:20:00,11.9,8.0,29.92,NNW,346,0.0,4.0,84,0.00,,,0.00,VWS V14.01,2014-01-22 00:20:00,
2014-01-21 19:25:00,11.7,7.8,29.92,NW,306,0.0,5.0,84,0.00,,,0.00,VWS V14.01,2014-01-22 00:25:00,
2014-01-21 19:30:00,11.6,7.7,29.92,NNW,338,2.0,4.0,84,0.00,,,0.00,VWS V14.01,2014-01-22 00:30:00,
2014-01-21 19:35:00,11.4,7.5,29.92,NW,324,0.0,7.0,84,0.00,,,0.00,VWS V14.01,2014-01-22 00:35:00,
2014-01-21 19:40:00,11.3,7.4,29.92,NW,304,0.0,7.0,84,0.00,,,0.00,VWS V14.01,2014-01-22 00:40:00,
2014-01-21 19:45:00,11.2,7.3,29.92,NW,305,0.0,1.0,84,0.00,,,0.00,VWS V14.01,2014-01-22 00:45:00,
2014-01-21 19:50:00,11.1,7.2,29.92,North,355,2.0,7.0,84,0.00,,,0.00,VWS V14.01,2014-01-22 00:50:00,
2014-01-21 19:55:00,10.9,7.0,29.92,NW,314,1.0,7.0,84,0.00,,,0.00,VWS V14.01,2014-01-22 00:55:00,
2014-01-21 20:00:00,10.9,7.0,29.92,NW,325,1.0,2.0,84,0.00,,,0.00,VWS V14.01,2014-01-22 01:00:00,
2014-01-21 20:05:00,10.8,6.9,29.92,NW,317,1.0,5.0,84,0.00,,,0.00,VWS V14.01,2014-01-22 01:05:00,
2014-01-21 20:10:00,10.7,6.8,29.93,North,355,0.0,5.0,84,0.00,,,0.00,VWS V14.01,2014-01-22 01:10:00,
2014-01-21 20:15:00,10.7,6.8,29.93,NNW,330,1.0,2.0,84,0.00,,,0.00,VWS V14.01,2014-01-22 01:15:00,
2014-01-21 20:20:00,10.6,6.7,29.93,NNW,335,4.0,5.0,84,0.00,,,0.00,VWS V14.01,2014-01-22 01:20:00,
2014-01-21 20:25:00,10.6,6.7,29.92,NNW,336,1.0,5.0,84,0.00,,,0.00,VWS V14.01,2014-01-22 01:25:00,
2014-01-21 20:30:00,10.5,6.6,29.92,NNW,329,0.0,4.0,84,0.00,,,0.00,VWS V14.01,2014-01-22 01:30:00,
2014-01-21 20:35:00,10.5,6.6,29.92,NW,312,1.0,5.0,84,0.00,,,0.00,VWS V14.01,2014-01-22 01:35:00,
2014-01-21 20:40:00,10.5,6.6,29.92,NW,310,0.0,5.0,84,0.00,,,0.00,VWS V14.01,2014-01-22 01:40:00,
2014-01-21 20:45:00,10.6,6.7,29.93,NW,313,2.0,3.0,84,0.00,,,0.00,VWS V14.01,2014-01-22 01:45:00,
2014-01-21 20:50:00,10.6,7.0,29.93,NW,313,0.0,4.0,85,0.00,,,0.00,VWS V14.01,2014-01-22 01:50:00,
2014-01-21 20:55:00,10.7,7.1,29.93,North,5,0.0,4.0,85,0.00,,,0.00,VWS V14.01,2014-01-22 01:55:00,
2014-01-21 21:00:00,10.7,7.1,29.93,NW,309,0.0,1.0,85,0.00,,,0.00,VWS V14.01,2014-01-22 02:00:00,
2014-01-21 21:05:00,10.7,7.1,29.93,NW,316,0.0,1.0,85,0.00,,,0.00,VWS V14.01,2014-01-22 02:05:00,
2014-01-21 21:10:00,10.8,7.2,29.93,NW,307,0.0,2.0,85,0.00,,,0.00,VWS V14.01,2014-01-22 02:10:00,
2014-01-21 21:15:00,10.8,6.9,29.93,NW,309,2.0,2.0,84,0.00,,,0.00,VWS V14.01,2014-01-22 02:15:00,
2014-01-21 21:20:00,10.8,6.9,29.93,NW,313,2.0,2.0,84,0.00,,,0.00,VWS V14.01,2014-01-22 02:20:00,
2014-01-21 21:25:00,10.8,6.9,29.92,NNW,342,1.0,5.0,84,0.00,,,0.00,VWS V14.01,2014-01-22 02:25:00,
2014-01-21 21:30:00,10.8,6.9,29.92,NW,320,1.0,2.0,84,0.00,,,0.00,VWS V14.01,2014-01-22 02:30:00,
2014-01-21 21:35:00,10.7,6.8,29.91,NNW,333,1.0,6.0,84,0.00,,,0.00,VWS V14.01,2014-01-22 02:35:00,
2014-01-21 21:40:00,10.7,6.8,29.91,NW,311,4.0,7.0,84,0.00,,,0.00,VWS V14.01,2014-01-22 02:40:00,
2014-01-21 21:45:00,10.6,6.7,29.91,NW,321,0.0,5.0,84,0.00,,,0.00,VWS V14.01,2014-01-22 02:45:00,
2014-01-21 21:50:00,10.6,6.7,29.91,NW,315,5.0,5.0,84,0.00,,,0.00,VWS V14.01,2014-01-22 02:50:00,
2014-01-21 21:55:00,10.5,6.6,29.91,NW,317,5.0,7.0,84,0.00,,,0.00,VWS V14.01,2014-01-22 02:55:00,
2014-01-21 22:00:00,10.5,6.6,29.91,NW,318,0.0,1.0,84,0.00,,,0.00,VWS V14.01,2014-01-22 03:00:00,
2014-01-21 22:05:00,10.5,6.6,29.91,NW,308,1.0,6.0,84,0.00,,,0.00,VWS V14.01,2014-01-22 03:05:00,
2014-01-21 22:10:00,10.4,6.5,29.91,North,355,4.0,6.0,84,0.00,,,0.00,VWS V14.01,2014-01-22 03:10:00,
2014-01-21 22:15:00,10.4,6.3,29.91,NW,311,4.0,4.0,83,0.00,,,0.00,VWS V14.01,2014-01-22 03:15:00,
2014-01-21 22:20:00,10.4,6.3,29.90,NW,319,1.0,9.0,83,0.00,,,0.00,VWS V14.01,2014-01-22 03:20:00,
2014-01-21 22:25:00,10.3,6.2,29.89,NNW,338,1.0,11.0,83,0.00,,,0.00,VWS V14.01,2014-01-22 03:25:00,
2014-01-21 22:30:00,10.3,6.2,29.89,North,360,5.0,6.0,83,0.00,,,0.00,VWS V14.01,2014-01-22 03:30:00,
2014-01-21 22:35:00,10.3,6.2,29.89,NNW,348,4.0,9.0,83,0.00,,,0.00,VWS V14.01,2014-01-22 03:35:00,
2014-01-21 22:40:00,10.3,6.2,29.88,NW,321,4.0,9.0,83,0.00,,,0.00,VWS V14.01,2014-01-22 03:40:00,
2014-01-21 22:45:00,10.2,6.1,29.88,NW,311,4.0,7.0,83,0.00,,,0.00,VWS V14.01,2014-01-22 03:45:00,
2014-01-21 22:50:00,10.1,6.0,29.88,NW,324,9.0,9.0,83,0.00,,,0.00,VWS V14.01,2014-01-22 03:50:00,
2014-01-21 22:55:00,10.0,5.9,29.88,WNW,298,7.0,12.0,83,0.00,,,0.00,VWS V14.01,2014-01-22 03:55:00,
2014-01-21 23:00:00,9.9,5.8,29.88,NNW,329,4.0,6.0,83,0.00,,,0.00,VWS V14.01,2014-01-22 04:00:00,
2014-01-21 23:05:00,9.9,5.5,29.87,NW,319,4.0,7.0,82,0.00,,,0.00,VWS V14.01,2014-01-22 04:05:00,
2014-01-21 23:10:00,9.9,5.5,29.87,NNW,327,4.0,11.0,82,0.00,,,0.00,VWS V14.01,2014-01-22 04:10:00,
2014-01-21 23:15:00,9.9,5.5,29.87,NW,324,4.0,6.0,82,0.00,,,0.00,VWS V14.01,2014-01-22 04:15:00,
2014-01-21 23:20:00,9.8,5.4,29.86,North,355,5.0,9.0,82,0.00,,,0.00,VWS V14.01,2014-01-22 04:20:00,
2014-01-21 23:25:00,9.8,5.2,29.85,NNW,344,2.0,9.0,81,0.00,,,0.00,VWS V14.01,2014-01-22 04:25:00,
2014-01-21 23:30:00,9.8,5.2,29.85,North,360,5.0,7.0,81,0.00,,,0.00,VWS V14.01,2014-01-22 04:30:00,
2014-01-21 23:35:00,9.8,5.2,29.85,North,355,4.0,7.0,81,0.00,,,0.00,VWS V14.01,2014-01-22 04:35:00,
2014-01-21 23:40:00,9.8,4.9,29.85,NW,324,6.0,11.0,80,0.00,,,0.00,VWS V14.01,2014-01-22 04:40:00,
2014-01-21 23:45:00,9.8,4.6,29.84,North,5,6.0,8.0,79,0.00,,,0.00,VWS V14.01,2014-01-22 04:45:00,
2014-01-21 23:50:00,9.8,4.6,29.84,NW,317,4.0,12.0,79,0.00,,,0.00,VWS V14.01,2014-01-22 04:50:00,
2014-01-21 23:55:00,9.8,4.6,29.85,NNW,333,2.0,12.0,79,0.00,,,0.00,VWS V14.01,2014-01-22 04:55:00,